STARLINK-5892 (55954 NORAD) Tracking and Keplerian Element Data

This shows tracking and keplerian element data for the satellite.

Feedback or suggestion? Click here.




ElementValue
Catalog55954
NameSTARLINK-5892
Epoch Orbit794
Epoch Day126.16496255
Epoch Year2023
RAAN42.1735
Inclination70.0027
Eccentricity0.0003884
Argument of Perigee270.0149
Mean Anonmoly90.0602
Mean Motion15.69942066
Decay Rate8.582E-05
L11 55954U 23037AS 23126.16496255 .00008582 00000+0 73010-4 0 9992
L22 55954 70.0027 42.1735 0003884 270.0149 90.0602 15.69942066 7949



Live tracking and technical data element details for STARLINK-5892 (NORAD 55954). STARLINK-5892 can be tracked NOW for your location showing map with azimuth and elevation plus other details from your city location.







IsCatalogInMostPopularTable: catalog: 55954, numindb: 9
Update: records affected: 1



GetName: 55954 STARLINK-5892

Hit Count: updated at: Tue, 06 Jun 2023 02:18:59 GMT